Location: Newark
(35.9031°N, 139.7175°E)
Time: 13:31:28
(UTC+00:00)

Transit 2A - Pass Details

Date: 30 May 2020
Orbit: 592 x 967 km, 66.7° (Epoch: 06 July)

Event Time Altitude Azimuth Distance (km) Brightness Sun altitude
Rises 11:12:39 0° 351° (N) 3,538 10.3 -14.4°
Reaches altitude 10° 11:17:18 10° 23° (NNE) 2,658 9.0 -15.1°
Maximum altitude 11:19:20 12° 42° (NE) 2,562 8.7 -15.4°
Drops below altitude 10° 11:21:24 10° 61° (ENE) 2,692 8.6 -15.7°
Enters shadow 11:23:53 - 80° (E) 3,103 8.8 -16.1°
